Flag for Ukraine Weather past 2 weeks in Luhansk, Ukraine

Now
73 °F

Clear.


Feels Like: 77 °F
Forecast: 62 / 89 °F
Wind: 13 mph from Northeast

Location: Rostov-Na-Donu

Current Time: Aug 3, 2015 at 2:12:02 AM

Latest Report: Aug 3, 2015 at 1:30 AM


Visibility: N/A

Pressure: 30.12 "Hg

Humidity: 31%

Dew point: 41 °F

Location of LuhanskLocation

Historic Weather in Luhansk — Graph

°F

Luhansk temperature yesterday

Maximum temperature yesterday: 88 °F (at 3:30 PM)
Minimum temperature yesterday: 64 °F (at 5:00 AM)
Average temperature yesterday: 76 °F

Past Weeks' High & Low Weather Summary

 TemperatureHumidityPressure
High99 °F (Jul 31, 3:00 PM)94% (Jul 20, 4:00 AM)30.12 "Hg (Jul 20, 4:00 AM)
Low57 °F (Jul 19, 5:00 AM)19% (Jul 26, 1:30 PM)29.65 "Hg (Jul 27, 7:30 PM)
Average79 °F49%29.88 "Hg
* Reported Jul 19 1:00 AM — Aug 3 1:00 AM, Luhansk, Weather by CustomWeather, © 2015

Note: Actual official high and low records may vary slightly from our data, if they occured in-between our weather recording intervals... More about our weather records

Advertising

Luhansk weather history for previous 24 hours

 ConditionsComfort  
Time TempWeatherWind HumidityBarometerVisibility
1:00 AM
Mon, Aug 3
75 °FClear.15 mph29%30.12 "HgN/A
12:30 AM75 °FClear.13 mph29%30.12 "HgN/A
12:00 AM75 °FClear.13 mph29%30.12 "HgN/A
11:30 PM
Sun, Aug 2
77 °FClear.13 mph28%30.12 "HgN/A
11:00 PM77 °FClear.8 mph30%30.12 "HgN/A
10:30 PM77 °FClear.8 mph30%30.12 "HgN/A
10:00 PM75 °FClear.10 mph31%30.12 "HgN/A
9:30 PM75 °FClear.10 mph31%30.12 "HgN/A
9:00 PM75 °FClear.8 mph34%30.12 "HgN/A
8:30 PM77 °FClear.8 mph32%30.12 "HgN/A
8:00 PM79 °FClear.8 mph30%30.12 "HgN/A
7:30 PM81 °FSunny.8 mph30%30.09 "Hg10 mi
7:00 PM84 °FSunny.10 mph25%30.09 "Hg10 mi
6:30 PM84 °FSunny.10 mph25%30.09 "Hg10 mi
6:00 PM86 °FSunny.15 mph22%30.09 "Hg10 mi
5:30 PM86 °FSunny.17 mph22%30.09 "Hg10 mi
5:00 PM88 °FSunny.17 mph22%30.09 "Hg10 mi
4:30 PM86 °FSunny.15 mph24%30.09 "Hg10 mi
4:00 PM86 °FSunny.17 mph24%30.09 "Hg10 mi
3:30 PM88 °FSunny.17 mph24%30.09 "Hg10 mi
3:00 PM86 °FSunny.15 mph25%30.09 "Hg10 mi
2:30 PM86 °FPassing clouds.15 mph24%30.12 "HgN/A
2:00 PM84 °FPassing clouds.15 mph27%30.12 "HgN/A
1:30 PM84 °FSunny.20 mph27%30.12 "Hg10 mi
1:00 PM84 °FSunny.20 mph27%30.12 "Hg10 mi
12:30 PM82 °FPassing clouds.17 mph28%30.12 "HgN/A
12:00 PM81 °FSunny.17 mph32%30.12 "Hg10 mi
11:30 AM81 °FSunny.17 mph30%30.12 "Hg10 mi
11:00 AM77 °FSunny.17 mph36%30.12 "Hg10 mi
10:30 AM77 °FSunny.20 mph34%30.12 "Hg10 mi
10:00 AM75 °FSunny.15 mph39%30.12 "Hg10 mi
9:30 AM73 °FSunny.22 mph38%30.12 "Hg10 mi
9:00 AM73 °FSunny.22 mph41%30.12 "Hg10 mi
8:30 AM72 °FSunny.17 mph47%30.12 "Hg10 mi
8:00 AM70 °FSunny.20 mph50%30.12 "Hg10 mi
7:30 AM68 °FSunny.20 mph53%30.12 "Hg10 mi
7:00 AM66 °FSunny.17 mph56%30.12 "Hg10 mi
6:30 AM66 °FSunny.15 mph56%30.09 "Hg10 mi
6:00 AM66 °FSunny.15 mph56%30.09 "Hg10 mi
5:30 AM64 °FClear.13 mph60%30.09 "Hg10 mi
5:00 AM64 °FClear.15 mph60%30.09 "Hg10 mi
4:30 AM66 °FClear.15 mph56%30.07 "HgN/A
4:00 AM66 °FClear.13 mph60%30.07 "HgN/A
3:30 AM66 °FPassing clouds.13 mph60%30.07 "HgN/A
3:00 AM68 °FPassing clouds.13 mph56%30.07 "HgN/A
2:30 AM68 °FPassing clouds.15 mph56%30.04 "HgN/A
2:00 AM70 °FClear.13 mph57%30.04 "HgN/A
Weather by CustomWeather, © 2015

See weather overviewHow to use our weather pages